Time,TemperatureF,DewpointF,PressureIn,WindDirection,WindDirectionDegrees,WindSpeedMPH,WindSpeedGustMPH,Humidity,HourlyPrecipIn,Conditions,Clouds,dailyrainin,SoftwareType,DateUTC
2013-04-13 00:05:00,50.5,45.5,29.51,West,266,0.0,0.0,83,0.00,,,0.00,Wunderground v.1.15,2013-04-13 07:05:00,
2013-04-13 00:10:00,50.4,45.7,29.51,West,266,0.0,0.0,84,0.00,,,0.00,Wunderground v.1.15,2013-04-13 07:10:00,
2013-04-13 00:17:00,50.1,45.5,29.51,West,266,0.0,0.0,84,0.00,,,0.00,Wunderground v.1.15,2013-04-13 07:17:00,
2013-04-13 00:22:00,49.8,45.5,29.51,West,266,0.0,0.0,85,0.00,,,0.00,Wunderground v.1.15,2013-04-13 07:22:00,
2013-04-13 00:28:00,49.5,45.2,29.51,West,266,0.0,0.0,85,0.00,,,0.00,Wunderground v.1.15,2013-04-13 07:28:00,
2013-04-13 00:38:00,49.1,45.1,29.51,West,266,0.0,0.0,86,0.00,,,0.00,Wunderground v.1.15,2013-04-13 07:38:00,
2013-04-13 00:44:00,48.9,44.9,29.51,West,266,0.0,0.0,86,0.00,,,0.00,Wunderground v.1.15,2013-04-13 07:44:00,
2013-04-13 00:50:00,48.6,44.6,29.51,West,266,0.0,0.0,86,0.00,,,0.00,Wunderground v.1.15,2013-04-13 07:50:00,
2013-04-13 00:56:00,48.5,44.8,29.51,West,266,0.0,0.0,87,0.00,,,0.00,Wunderground v.1.15,2013-04-13 07:56:00,
2013-04-13 01:02:00,48.5,45.1,29.51,West,266,0.0,0.0,88,0.00,,,0.00,Wunderground v.1.15,2013-04-13 08:02:00,
2013-04-13 01:09:00,48.3,44.9,29.51,West,266,0.0,0.0,88,0.00,,,0.00,Wunderground v.1.15,2013-04-13 08:09:00,
2013-04-13 01:16:00,48.0,44.3,29.51,West,266,0.0,0.0,87,0.00,,,0.00,Wunderground v.1.15,2013-04-13 08:16:00,
2013-04-13 01:22:00,47.7,44.3,29.51,West,266,0.0,0.0,88,0.00,,,0.00,Wunderground v.1.15,2013-04-13 08:22:00,
2013-04-13 01:28:00,47.9,44.8,29.50,West,266,0.0,0.0,89,0.00,,,0.00,Wunderground v.1.15,2013-04-13 08:28:00,
2013-04-13 01:34:00,47.6,44.2,29.50,West,266,0.0,0.0,88,0.00,,,0.00,Wunderground v.1.15,2013-04-13 08:34:00,
2013-04-13 01:47:00,46.8,43.7,29.50,West,266,0.0,0.0,89,0.00,,,0.00,Wunderground v.1.15,2013-04-13 08:47:00,
2013-04-13 01:52:00,46.5,43.4,29.50,West,266,0.0,0.0,89,0.00,,,0.00,Wunderground v.1.15,2013-04-13 08:52:00,
2013-04-13 01:58:00,46.4,43.3,29.50,West,266,0.0,0.0,89,0.00,,,0.00,Wunderground v.1.15,2013-04-13 08:58:00,
2013-04-13 02:04:00,46.2,43.4,29.50,West,266,0.0,0.0,90,0.00,,,0.00,Wunderground v.1.15,2013-04-13 09:04:00,
2013-04-13 02:11:00,46.0,43.2,29.50,West,266,0.0,0.0,90,0.00,,,0.00,Wunderground v.1.15,2013-04-13 09:11:00,
2013-04-13 02:17:00,45.8,43.0,29.49,West,266,0.0,0.0,90,0.00,,,0.00,Wunderground v.1.15,2013-04-13 09:17:00,
2013-04-13 02:23:00,45.8,43.0,29.49,West,266,0.0,0.0,90,0.00,,,0.00,Wunderground v.1.15,2013-04-13 09:23:00,
2013-04-13 02:29:00,45.5,42.7,29.49,West,266,0.0,0.0,90,0.00,,,0.00,Wunderground v.1.15,2013-04-13 09:29:00,
2013-04-13 02:34:00,45.2,42.7,29.50,West,266,0.0,0.0,91,0.00,,,0.00,Wunderground v.1.15,2013-04-13 09:34:00,
2013-04-13 02:41:00,45.1,42.6,29.49,West,266,0.0,0.0,91,0.00,,,0.00,Wunderground v.1.15,2013-04-13 09:41:00,
2013-04-13 02:51:00,44.8,42.3,29.49,West,266,0.0,0.0,91,0.00,,,0.00,Wunderground v.1.15,2013-04-13 09:51:00,
2013-04-13 03:00:00,44.6,42.1,29.48,West,266,0.0,0.0,91,0.00,,,0.00,Wunderground v.1.15,2013-04-13 10:00:00,
2013-04-13 03:08:00,44.3,41.8,29.49,West,266,0.0,1.0,91,0.00,,,0.00,Wunderground v.1.15,2013-04-13 10:08:00,
2013-04-13 03:15:00,44.2,42.0,29.49,West,266,0.0,0.0,92,0.00,,,0.00,Wunderground v.1.15,2013-04-13 10:15:00,
2013-04-13 03:20:00,44.1,41.9,29.49,West,266,0.0,0.0,92,0.00,,,0.00,Wunderground v.1.15,2013-04-13 10:20:00,
2013-04-13 03:31:00,44.3,42.1,29.48,West,266,0.0,0.0,92,0.00,,,0.00,Wunderground v.1.15,2013-04-13 10:31:00,
2013-04-13 03:37:00,44.3,42.1,29.48,West,266,0.0,0.0,92,0.00,,,0.00,Wunderground v.1.15,2013-04-13 10:37:00,
2013-04-13 03:43:00,44.2,41.7,29.49,West,266,0.0,0.0,91,0.00,,,0.00,Wunderground v.1.15,2013-04-13 10:43:00,
2013-04-13 03:49:00,43.6,41.1,29.48,West,266,0.0,0.0,91,0.00,,,0.00,Wunderground v.1.15,2013-04-13 10:49:00,
2013-04-13 03:54:00,43.6,41.4,29.48,West,266,0.0,0.0,92,0.00,,,0.00,Wunderground v.1.15,2013-04-13 10:54:00,
2013-04-13 04:00:00,43.5,41.3,29.49,West,266,0.0,0.0,92,0.00,,,0.00,Wunderground v.1.15,2013-04-13 11:00:00,
2013-04-13 04:09:00,43.3,41.1,29.48,West,266,0.0,0.0,92,0.00,,,0.00,Wunderground v.1.15,2013-04-13 11:09:00,
2013-04-13 04:15:00,43.2,41.0,29.49,West,266,0.0,0.0,92,0.00,,,0.00,Wunderground v.1.15,2013-04-13 11:15:00,
2013-04-13 04:20:00,43.1,40.9,29.49,West,266,0.0,0.0,92,0.00,,,0.00,Wunderground v.1.15,2013-04-13 11:20:00,
2013-04-13 04:26:00,43.2,41.0,29.49,West,266,0.0,0.0,92,0.00,,,0.00,Wunderground v.1.15,2013-04-13 11:26:00,
2013-04-13 04:33:00,43.2,41.0,29.49,West,266,0.0,0.0,92,0.00,,,0.00,Wunderground v.1.15,2013-04-13 11:33:00,
2013-04-13 04:39:00,43.2,41.0,29.49,West,266,0.0,3.0,92,0.00,,,0.00,Wunderground v.1.15,2013-04-13 11:39:00,
2013-04-13 04:45:00,43.1,40.9,29.49,West,266,0.0,2.0,92,0.00,,,0.00,Wunderground v.1.15,2013-04-13 11:45:00,
2013-04-13 04:51:00,42.9,40.7,29.49,West,266,0.0,0.0,92,0.00,,,0.00,Wunderground v.1.15,2013-04-13 11:51:00,
2013-04-13 04:56:00,42.8,40.6,29.49,West,266,0.0,0.0,92,0.00,,,0.00,Wunderground v.1.15,2013-04-13 11:56:00,
2013-04-13 05:02:00,42.5,40.3,29.49,West,266,0.0,0.0,92,0.00,,,0.00,Wunderground v.1.15,2013-04-13 12:02:00,
2013-04-13 05:09:00,42.6,40.4,29.49,West,266,0.0,0.0,92,0.00,,,0.00,Wunderground v.1.15,2013-04-13 12:09:00,
2013-04-13 05:15:00,42.6,40.4,29.49,West,266,0.0,0.0,92,0.00,,,0.00,Wunderground v.1.15,2013-04-13 12:15:00,
2013-04-13 05:22:00,42.5,40.3,29.49,West,266,0.0,0.0,92,0.00,,,0.00,Wunderground v.1.15,2013-04-13 12:22:00,
2013-04-13 05:33:00,42.6,40.7,29.49,West,266,0.0,0.0,93,0.00,,,0.00,Wunderground v.1.15,2013-04-13 12:33:00,
2013-04-13 05:39:00,42.9,41.0,29.49,West,266,0.0,0.0,93,0.00,,,0.00,Wunderground v.1.15,2013-04-13 12:39:00,
2013-04-13 05:45:00,42.9,41.0,29.49,West,266,0.0,0.0,93,0.00,,,0.00,Wunderground v.1.15,2013-04-13 12:45:00,
2013-04-13 05:50:00,42.9,41.0,29.49,West,266,0.0,0.0,93,0.00,,,0.00,Wunderground v.1.15,2013-04-13 12:50:00,
2013-04-13 05:57:00,43.1,41.2,29.49,West,266,0.0,0.0,93,0.00,,,0.00,Wunderground v.1.15,2013-04-13 12:57:00,
2013-04-13 06:03:00,43.1,41.2,29.49,West,266,0.0,0.0,93,0.00,,,0.00,Wunderground v.1.15,2013-04-13 13:03:00,
2013-04-13 06:08:00,42.6,40.4,29.49,West,266,0.0,0.0,92,0.00,,,0.00,Wunderground v.1.15,2013-04-13 13:08:00,
2013-04-13 06:17:00,42.3,40.1,29.50,West,266,0.0,0.0,92,0.00,,,0.00,Wunderground v.1.15,2013-04-13 13:17:00,
2013-04-13 06:22:00,42.1,39.9,29.49,West,266,0.0,0.0,92,0.00,,,0.00,Wunderground v.1.15,2013-04-13 13:22:00,
2013-04-13 06:29:00,42.1,40.2,29.49,West,266,0.0,0.0,93,0.00,,,0.00,Wunderground v.1.15,2013-04-13 13:29:00,
2013-04-13 06:35:00,41.9,40.0,29.50,West,266,0.0,0.0,93,0.00,,,0.00,Wunderground v.1.15,2013-04-13 13:35:00,
2013-04-13 06:40:00,41.8,39.6,29.50,West,266,0.0,0.0,92,0.00,,,0.00,Wunderground v.1.15,2013-04-13 13:40:00,
2013-04-13 06:47:00,41.6,39.4,29.51,West,266,0.0,0.0,92,0.00,,,0.00,Wunderground v.1.15,2013-04-13 13:47:00,
2013-04-13 06:52:00,41.9,40.0,29.50,West,266,0.0,0.0,93,0.00,,,0.00,Wunderground v.1.15,2013-04-13 13:52:00,
2013-04-13 06:59:00,42.1,40.2,29.50,West,266,0.0,0.0,93,0.00,,,0.00,Wunderground v.1.15,2013-04-13 13:59:00,
2013-04-13 07:05:00,41.8,39.9,29.51,West,266,0.0,0.0,93,0.00,,,0.00,Wunderground v.1.15,2013-04-13 14:05:00,
2013-04-13 07:10:00,41.8,39.9,29.51,West,266,0.0,0.0,93,0.00,,,0.00,Wunderground v.1.15,2013-04-13 14:10:00,
2013-04-13 07:19:00,41.9,40.0,29.51,West,266,0.0,1.0,93,0.00,,,0.00,Wunderground v.1.15,2013-04-13 14:19:00,
2013-04-13 07:25:00,42.2,40.6,29.52,West,266,0.0,1.0,94,0.00,,,0.00,Wunderground v.1.15,2013-04-13 14:25:00,
2013-04-13 07:31:00,42.8,41.2,29.52,West,266,0.0,0.0,94,0.00,,,0.00,Wunderground v.1.15,2013-04-13 14:31:00,
2013-04-13 07:36:00,43.3,41.7,29.52,West,266,0.0,0.0,94,0.00,,,0.00,Wunderground v.1.15,2013-04-13 14:36:00,
2013-04-13 07:43:00,43.9,42.3,29.53,West,266,0.0,0.0,94,0.00,,,0.00,Wunderground v.1.15,2013-04-13 14:43:00,
2013-04-13 07:49:00,44.5,42.6,29.52,West,266,0.0,0.0,93,0.00,,,0.00,Wunderground v.1.15,2013-04-13 14:49:00,
2013-04-13 07:55:00,45.2,43.3,29.52,West,266,0.0,0.0,93,0.00,,,0.00,Wunderground v.1.15,2013-04-13 14:55:00,
2013-04-13 08:00:00,46.0,43.8,29.53,West,266,0.0,0.0,92,0.00,,,0.00,Wunderground v.1.15,2013-04-13 15:00:00,
2013-04-13 08:06:00,46.8,44.3,29.53,West,266,0.0,0.0,91,0.00,,,0.00,Wunderground v.1.15,2013-04-13 15:06:00,
2013-04-13 08:12:00,48.0,45.2,29.53,West,266,0.0,0.0,90,0.00,,,0.00,Wunderground v.1.15,2013-04-13 15:12:00,
2013-04-13 08:19:00,49.5,45.8,29.53,West,266,0.0,0.0,87,0.00,,,0.00,Wunderground v.1.15,2013-04-13 15:19:00,
2013-04-13 08:24:00,50.4,45.7,29.53,West,266,0.0,0.0,84,0.00,,,0.00,Wunderground v.1.15,2013-04-13 15:24:00,
2013-04-13 08:30:00,51.4,46.1,29.53,West,266,0.0,0.0,82,0.00,,,0.00,Wunderground v.1.15,2013-04-13 15:30:00,
2013-04-13 08:37:00,52.8,45.4,29.53,West,266,0.0,0.0,76,0.00,,,0.00,Wunderground v.1.15,2013-04-13 15:37:00,
2013-04-13 08:42:00,54.1,45.6,29.53,West,266,0.0,0.0,73,0.00,,,0.00,Wunderground v.1.15,2013-04-13 15:42:00,
2013-04-13 08:48:00,55.1,45.9,29.53,West,266,0.0,0.0,71,0.00,,,0.00,Wunderground v.1.15,2013-04-13 15:48:00,
2013-04-13 08:55:00,56.0,45.6,29.53,ESE,106,0.0,0.0,68,0.00,,,0.00,Wunderground v.1.15,2013-04-13 15:55:00,
2013-04-13 09:01:00,56.3,45.5,29.53,WSW,245,1.0,3.0,67,0.00,,,0.00,Wunderground v.1.15,2013-04-13 16:01:00,
2013-04-13 09:07:00,56.9,45.7,29.53,NNE,26,2.0,6.0,66,0.00,,,0.00,Wunderground v.1.15,2013-04-13 16:07:00,
2013-04-13 09:13:00,57.5,44.6,29.53,WNW,301,2.0,3.0,62,0.00,,,0.00,Wunderground v.1.15,2013-04-13 16:13:00,
2013-04-13 09:20:00,57.8,44.9,29.53,WNW,287,4.0,6.0,62,0.00,,,0.00,Wunderground v.1.15,2013-04-13 16:20:00,
2013-04-13 09:28:00,58.1,46.4,29.53,West,281,5.0,14.0,65,0.00,,,0.00,Wunderground v.1.15,2013-04-13 16:28:00,
2013-04-13 09:34:00,58.3,45.8,29.53,SW,236,6.0,6.0,63,0.00,,,0.00,Wunderground v.1.15,2013-04-13 16:34:00,
2013-04-13 09:40:00,58.6,46.0,29.53,WNW,293,6.0,6.0,63,0.00,,,0.00,Wunderground v.1.15,2013-04-13 16:40:00,
2013-04-13 09:47:00,59.0,46.0,29.53,NW,315,5.0,9.0,62,0.00,,,0.00,Wunderground v.1.15,2013-04-13 16:47:00,
2013-04-13 09:53:00,59.2,45.8,29.53,West,279,7.0,7.0,61,0.00,,,0.00,Wunderground v.1.15,2013-04-13 16:53:00,
2013-04-13 09:59:00,59.6,46.6,29.53,SW,235,6.0,7.0,62,0.00,,,0.00,Wunderground v.1.15,2013-04-13 16:59:00,
2013-04-13 10:04:00,59.9,45.5,29.53,WSW,257,6.0,7.0,59,0.00,,,0.00,Wunderground v.1.15,2013-04-13 17:04:00,
2013-04-13 10:11:00,60.2,46.3,29.53,WNW,288,7.0,7.0,60,0.00,,,0.00,Wunderground v.1.15,2013-04-13 17:11:00,
2013-04-13 10:16:00,60.7,47.2,29.53,West,261,6.0,7.0,61,0.00,,,0.00,Wunderground v.1.15,2013-04-13 17:16:00,
2013-04-13 10:23:00,61.3,46.8,29.53,NW,326,6.0,10.0,59,0.00,,,0.00,Wunderground v.1.15,2013-04-13 17:23:00,
2013-04-13 10:28:00,62.0,47.5,29.53,West,271,5.0,10.0,59,0.00,,,0.00,Wunderground v.1.15,2013-04-13 17:28:00,
2013-04-13 10:35:00,62.3,46.9,29.53,WNW,283,5.0,13.0,57,0.00,,,0.00,Wunderground v.1.15,2013-04-13 17:35:00,
2013-04-13 10:36:00,64.5,46.0,29.53,West,275,6.0,6.0,51,0.00,,,0.00,Wunderground v.1.15,2013-04-13 17:36:00,
2013-04-13 10:38:00,64.7,46.1,29.53,WNW,292,6.0,6.0,51,0.00,,,0.00,Wunderground v.1.15,2013-04-13 17:38:00,
2013-04-13 10:40:00,65.0,47.4,29.53,WNW,293,5.0,5.0,53,0.00,,,0.00,Wunderground v.1.15,2013-04-13 17:40:00,
2013-04-13 10:42:00,65.2,46.1,29.53,WSW,244,5.0,5.0,50,0.00,,,0.00,Wunderground v.1.15,2013-04-13 17:42:00,
2013-04-13 10:43:00,62.4,46.0,29.53,West,281,5.0,7.0,55,0.00,,,0.00,Wunderground v.1.15,2013-04-13 17:43:00,
2013-04-13 10:44:00,65.3,47.7,29.52,NW,306,5.0,5.0,53,0.00,,,0.00,Wunderground v.1.15,2013-04-13 17:44:00,
2013-04-13 10:46:00,65.3,46.7,29.52,WNW,284,5.0,5.0,51,0.00,,,0.00,Wunderground v.1.15,2013-04-13 17:46:00,
2013-04-13 10:48:00,62.7,46.8,29.52,West,266,4.0,7.0,56,0.00,,,0.00,Wunderground v.1.15,2013-04-13 17:48:00,
2013-04-13 10:50:00,65.3,45.6,29.52,WNW,282,6.0,6.0,49,0.00,,,0.00,Wunderground v.1.15,2013-04-13 17:50:00,
2013-04-13 10:52:00,65.3,46.7,29.52,WNW,303,6.0,6.0,51,0.00,,,0.00,Wunderground v.1.15,2013-04-13 17:52:00,
2013-04-13 10:54:00,65.3,45.6,29.52,WNW,288,6.0,6.0,49,0.00,,,0.00,Wunderground v.1.15,2013-04-13 17:54:00,
2013-04-13 10:55:00,62.9,47.0,29.52,NW,304,5.0,10.0,56,0.00,,,0.00,Wunderground v.1.15,2013-04-13 17:55:00,
2013-04-13 10:56:00,65.5,46.4,29.52,NW,308,6.0,6.0,50,0.00,,,0.00,Wunderground v.1.15,2013-04-13 17:56:00,
2013-04-13 10:58:00,65.8,46.6,29.52,West,281,5.0,6.0,50,0.00,,,0.00,Wunderground v.1.15,2013-04-13 17:58:00,
2013-04-13 11:00:00,66.1,45.8,29.52,West,281,5.0,6.0,48,0.00,,,0.00,Wunderground v.1.15,2013-04-13 18:00:00,
2013-04-13 11:01:00,62.9,46.0,29.52,West,270,7.0,7.0,54,0.00,,,0.00,Wunderground v.1.15,2013-04-13 18:01:00,
2013-04-13 11:02:00,66.3,46.6,29.52,West,281,5.0,6.0,49,0.00,,,0.00,Wunderground v.1.15,2013-04-13 18:02:00,
2013-04-13 11:04:00,66.3,46.0,29.51,West,272,5.0,6.0,48,0.00,,,0.00,Wunderground v.1.15,2013-04-13 18:04:00,
2013-04-13 11:06:00,66.4,45.5,29.51,West,263,5.0,6.0,47,0.00,,,0.00,Wunderground v.1.15,2013-04-13 18:06:00,
2013-04-13 11:07:00,63.2,47.2,29.53,NW,317,7.0,9.0,56,0.00,,,0.00,Wunderground v.1.15,2013-04-13 18:07:00,
2013-04-13 11:08:00,66.4,46.7,29.51,NW,312,5.0,6.0,49,0.00,,,0.00,Wunderground v.1.15,2013-04-13 18:08:00,
2013-04-13 11:10:00,66.6,47.9,29.51,WSW,249,4.0,4.0,51,0.00,,,0.00,Wunderground v.1.15,2013-04-13 18:10:00,
2013-04-13 11:12:00,66.8,44.8,29.51,NW,309,4.0,7.0,45,0.00,,,0.00,Wunderground v.1.15,2013-04-13 18:12:00,
2013-04-13 11:13:00,63.5,46.6,29.53,West,259,5.0,8.0,54,0.00,,,0.00,Wunderground v.1.15,2013-04-13 18:13:00,
2013-04-13 11:14:00,66.9,45.4,29.51,WNW,283,4.0,7.0,46,0.00,,,0.00,Wunderground v.1.15,2013-04-13 18:14:00,
2013-04-13 11:16:00,66.9,44.9,29.51,WNW,298,4.0,7.0,45,0.00,,,0.00,Wunderground v.1.15,2013-04-13 18:16:00,
2013-04-13 11:18:00,63.9,45.9,29.52,NW,319,6.0,8.0,52,0.00,,,0.00,Wunderground v.1.15,2013-04-13 18:18:00,
2013-04-13 11:20:00,66.9,43.7,29.51,WNW,284,6.0,6.0,43,0.00,,,0.00,Wunderground v.1.15,2013-04-13 18:20:00,
2013-04-13 11:22:00,66.9,43.7,29.51,WSW,245,6.0,6.0,43,0.00,,,0.00,Wunderground v.1.15,2013-04-13 18:22:00,
2013-04-13 11:24:00,64.3,45.8,29.53,NW,310,6.0,6.0,51,0.00,,,0.00,Wunderground v.1.15,2013-04-13 18:24:00,
2013-04-13 11:26:00,67.3,44.6,29.50,SW,214,6.0,9.0,44,0.00,,,0.00,Wunderground v.1.15,2013-04-13 18:26:00,
2013-04-13 11:28:00,67.4,45.9,29.51,NW,325,5.0,9.0,46,0.00,,,0.00,Wunderground v.1.15,2013-04-13 18:28:00,
2013-04-13 11:30:00,67.9,48.0,29.50,WSW,252,4.0,4.0,49,0.00,,,0.00,Wunderground v.1.15,2013-04-13 18:30:00,
2013-04-13 11:32:00,68.1,45.4,29.50,NW,304,4.0,5.0,44,0.00,,,0.00,Wunderground v.1.15,2013-04-13 18:32:00,
2013-04-13 11:34:00,68.3,46.1,29.50,NNE,22,3.0,5.0,45,0.00,,,0.00,Wunderground v.1.15,2013-04-13 18:34:00,
2013-04-13 11:36:00,68.6,48.1,29.50,WNW,286,3.0,5.0,48,0.00,,,0.00,Wunderground v.1.15,2013-04-13 18:36:00,
2013-04-13 11:38:00,68.6,46.4,29.50,West,265,3.0,5.0,45,0.00,,,0.00,Wunderground v.1.15,2013-04-13 18:38:00,
2013-04-13 11:40:00,68.9,46.7,29.50,NW,306,3.0,3.0,45,0.00,,,0.00,Wunderground v.1.15,2013-04-13 18:40:00,
2013-04-13 11:42:00,68.9,47.3,29.50,NW,304,3.0,5.0,46,0.00,,,0.00,Wunderground v.1.15,2013-04-13 18:42:00,
2013-04-13 11:44:00,69.1,47.4,29.50,WNW,286,4.0,9.0,46,0.00,,,0.00,Wunderground v.1.15,2013-04-13 18:44:00,
2013-04-13 11:46:00,69.1,47.4,29.50,SSW,195,4.0,9.0,46,0.00,,,0.00,Wunderground v.1.15,2013-04-13 18:46:00,
2013-04-13 11:48:00,69.3,47.6,29.50,WNW,288,4.0,11.0,46,0.00,,,0.00,Wunderground v.1.15,2013-04-13 18:48:00,
2013-04-13 11:50:00,69.3,47.0,29.50,West,281,4.0,5.0,45,0.00,,,0.00,Wunderground v.1.15,2013-04-13 18:50:00,
2013-04-13 11:52:00,69.3,46.4,29.50,NW,304,5.0,5.0,44,0.00,,,0.00,Wunderground v.1.15,2013-04-13 18:52:00,
2013-04-13 11:54:00,69.3,45.8,29.50,WNW,301,5.0,9.0,43,0.00,,,0.00,Wunderground v.1.15,2013-04-13 18:54:00,
2013-04-13 11:56:00,69.3,45.8,29.49,WNW,284,5.0,9.0,43,0.00,,,0.00,Wunderground v.1.15,2013-04-13 18:56:00,
2013-04-13 11:58:00,69.4,46.5,29.49,NW,317,5.0,9.0,44,0.00,,,0.00,Wunderground v.1.15,2013-04-13 18:58:00,
2013-04-13 12:00:00,69.8,45.7,29.49,NNE,13,3.0,5.0,42,0.00,,,0.00,Wunderground v.1.15,2013-04-13 19:00:00,
2013-04-13 12:02:00,70.3,46.1,29.49,North,11,3.0,5.0,42,0.00,,,0.00,Wunderground v.1.15,2013-04-13 19:02:00,
2013-04-13 12:04:00,70.6,44.4,29.49,NW,311,3.0,5.0,39,0.00,,,0.00,Wunderground v.1.15,2013-04-13 19:04:00,
2013-04-13 12:06:00,70.8,47.2,29.49,WNW,284,2.0,5.0,43,0.00,,,0.00,Wunderground v.1.15,2013-04-13 19:06:00,
2013-04-13 12:08:00,70.8,46.6,29.49,North,11,3.0,5.0,42,0.00,,,0.00,Wunderground v.1.15,2013-04-13 19:08:00,
2013-04-13 12:10:00,70.9,47.3,29.49,SW,217,3.0,6.0,43,0.00,,,0.00,Wunderground v.1.15,2013-04-13 19:10:00,
2013-04-13 12:12:00,70.9,46.7,29.49,SW,221,3.0,6.0,42,0.00,,,0.00,Wunderground v.1.15,2013-04-13 19:12:00,
2013-04-13 12:14:00,71.1,46.8,29.49,WNW,292,3.0,6.0,42,0.00,,,0.00,Wunderground v.1.15,2013-04-13 19:14:00,
2013-04-13 12:16:00,71.3,44.4,29.49,West,271,3.0,6.0,38,0.00,,,0.00,Wunderground v.1.15,2013-04-13 19:16:00,
2013-04-13 12:18:00,71.1,46.8,29.49,West,267,3.0,9.0,42,0.00,,,0.00,Wunderground v.1.15,2013-04-13 19:18:00,
2013-04-13 12:20:00,70.9,46.0,29.49,NW,311,4.0,5.0,41,0.00,,,0.00,Wunderground v.1.15,2013-04-13 19:20:00,
2013-04-13 12:22:00,70.8,46.6,29.49,WSW,254,4.0,6.0,42,0.00,,,0.00,Wunderground v.1.15,2013-04-13 19:22:00,
2013-04-13 12:24:00,70.4,45.6,29.49,NNW,340,5.0,6.0,41,0.00,,,0.00,Wunderground v.1.15,2013-04-13 19:24:00,
2013-04-13 12:26:00,70.3,44.8,29.48,NW,309,6.0,6.0,40,0.00,,,0.00,Wunderground v.1.15,2013-04-13 19:26:00,
2013-04-13 12:28:00,70.3,44.8,29.48,WNW,295,6.0,6.0,40,0.00,,,0.00,Wunderground v.1.15,2013-04-13 19:28:00,
2013-04-13 12:30:00,70.4,46.8,29.48,WNW,289,6.0,6.0,43,0.00,,,0.00,Wunderground v.1.15,2013-04-13 19:30:00,
2013-04-13 12:32:00,70.6,45.7,29.48,WNW,298,6.0,6.0,41,0.00,,,0.00,Wunderground v.1.15,2013-04-13 19:32:00,
2013-04-13 12:34:00,70.8,44.6,29.48,WNW,287,6.0,6.0,39,0.00,,,0.00,Wunderground v.1.15,2013-04-13 19:34:00,
2013-04-13 12:36:00,70.8,45.3,29.48,WNW,302,6.0,6.0,40,0.00,,,0.00,Wunderground v.1.15,2013-04-13 19:36:00,
2013-04-13 12:38:00,70.9,47.9,29.48,WNW,291,6.0,6.0,44,0.00,,,0.00,Wunderground v.1.15,2013-04-13 19:38:00,
2013-04-13 12:40:00,71.1,47.5,29.48,WNW,288,6.0,6.0,43,0.00,,,0.00,Wunderground v.1.15,2013-04-13 19:40:00,
2013-04-13 12:42:00,71.3,46.4,29.47,WNW,284,6.0,6.0,41,0.00,,,0.00,Wunderground v.1.15,2013-04-13 19:42:00,
2013-04-13 12:44:00,71.3,47.0,29.47,WSW,240,5.0,6.0,42,0.00,,,0.00,Wunderground v.1.15,2013-04-13 19:44:00,
2013-04-13 12:48:00,71.6,47.3,29.47,West,268,5.0,6.0,42,0.00,,,0.00,Wunderground v.1.15,2013-04-13 19:48:00,
2013-04-13 12:50:00,71.8,46.8,29.47,West,280,5.0,5.0,41,0.00,,,0.00,Wunderground v.1.15,2013-04-13 19:50:00,
2013-04-13 12:52:00,72.0,46.3,29.47,NNW,348,4.0,7.0,40,0.00,,,0.00,Wunderground v.1.15,2013-04-13 19:52:00,
2013-04-13 12:54:00,72.0,46.3,29.47,West,264,4.0,7.0,40,0.00,,,0.00,Wunderground v.1.15,2013-04-13 19:54:00,
2013-04-13 13:00:00,72.1,45.8,29.47,WNW,298,4.0,9.0,39,0.00,,,0.00,Wunderground v.1.15,2013-04-13 20:00:00,
2013-04-13 13:02:00,72.1,48.4,29.47,WSW,255,5.0,9.0,43,0.00,,,0.00,Wunderground v.1.15,2013-04-13 20:02:00,
2013-04-13 13:04:00,72.0,45.0,29.47,WNW,289,5.0,9.0,38,0.00,,,0.00,Wunderground v.1.15,2013-04-13 20:04:00,
2013-04-13 13:08:00,72.1,45.8,29.46,WNW,294,6.0,9.0,39,0.00,,,0.00,Wunderground v.1.15,2013-04-13 20:08:00,
2013-04-13 13:10:00,72.1,47.7,29.47,WSW,258,6.0,6.0,42,0.00,,,0.00,Wunderground v.1.15,2013-04-13 20:10:00,
2013-04-13 13:12:00,72.1,47.1,29.47,WNW,288,5.0,6.0,41,0.00,,,0.00,Wunderground v.1.15,2013-04-13 20:12:00,
2013-04-13 13:14:00,72.5,46.1,29.47,West,271,5.0,11.0,39,0.00,,,0.00,Wunderground v.1.15,2013-04-13 20:14:00,
2013-04-13 13:16:00,72.3,44.6,29.47,West,271,5.0,11.0,37,0.00,,,0.00,Wunderground v.1.15,2013-04-13 20:16:00,
2013-04-13 13:18:00,72.3,46.6,29.46,West,275,5.0,11.0,40,0.00,,,0.00,Wunderground v.1.15,2013-04-13 20:18:00,
2013-04-13 13:20:00,72.5,47.5,29.46,West,265,5.0,5.0,41,0.00,,,0.00,Wunderground v.1.15,2013-04-13 20:20:00,
2013-04-13 13:22:00,72.3,47.3,29.46,West,269,5.0,5.0,41,0.00,,,0.00,Wunderground v.1.15,2013-04-13 20:22:00,
2013-04-13 13:24:00,72.1,50.2,29.46,NW,315,5.0,5.0,46,0.00,,,0.00,Wunderground v.1.15,2013-04-13 20:24:00,
2013-04-13 13:26:00,72.3,48.5,29.46,WSW,257,4.0,6.0,43,0.00,,,0.00,Wunderground v.1.15,2013-04-13 20:26:00,
2013-04-13 13:30:00,72.1,47.1,29.46,SSW,209,5.0,5.0,41,0.00,,,0.00,Wunderground v.1.15,2013-04-13 20:30:00,
2013-04-13 13:36:00,71.5,47.8,29.47,WNW,290,5.0,6.0,43,0.00,,,0.00,Wunderground v.1.15,2013-04-13 20:36:00,
2013-04-13 13:38:00,72.1,46.4,29.46,SW,221,4.0,5.0,40,0.00,,,0.00,Wunderground v.1.15,2013-04-13 20:38:00,
2013-04-13 13:47:00,72.1,47.1,29.47,WSW,242,4.0,7.0,41,0.00,,,0.00,Wunderground v.1.15,2013-04-13 20:47:00,
2013-04-13 13:56:00,72.0,48.3,29.46,NNW,344,5.0,9.0,43,0.00,,,0.00,Wunderground v.1.15,2013-04-13 20:56:00,
2013-04-13 14:19:00,72.3,49.8,29.46,NW,305,5.0,6.0,45,0.00,,,0.00,Wunderground v.1.15,2013-04-13 21:19:00,
2013-04-13 14:25:00,72.1,47.1,29.46,WNW,289,5.0,5.0,41,0.00,,,0.00,Wunderground v.1.15,2013-04-13 21:25:00,
2013-04-13 14:31:00,72.1,47.7,29.46,WSW,254,4.0,9.0,42,0.00,,,0.00,Wunderground v.1.15,2013-04-13 21:31:00,
2013-04-13 14:37:00,72.1,48.4,29.46,WNW,290,6.0,9.0,43,0.00,,,0.00,Wunderground v.1.15,2013-04-13 21:37:00,
2013-04-13 14:42:00,72.7,47.0,29.46,SW,228,6.0,6.0,40,0.00,,,0.00,Wunderground v.1.15,2013-04-13 21:42:00,
2013-04-13 14:49:00,72.5,49.3,29.46,NW,304,6.0,7.0,44,0.00,,,0.00,Wunderground v.1.15,2013-04-13 21:49:00,
2013-04-13 14:54:00,72.5,48.1,29.46,WNW,290,6.0,6.0,42,0.00,,,0.00,Wunderground v.1.15,2013-04-13 21:54:00,
2013-04-13 15:01:00,73.2,51.2,29.45,WSW,256,4.0,4.0,46,0.00,,,0.00,Wunderground v.1.15,2013-04-13 22:01:00,
2013-04-13 15:06:00,73.2,49.4,29.45,WSW,248,3.0,5.0,43,0.00,,,0.00,Wunderground v.1.15,2013-04-13 22:06:00,
2013-04-13 15:12:00,72.8,48.4,29.45,NW,310,5.0,6.0,42,0.00,,,0.00,Wunderground v.1.15,2013-04-13 22:12:00,
2013-04-13 15:18:00,72.8,47.1,29.45,WNW,303,6.0,9.0,40,0.00,,,0.00,Wunderground v.1.15,2013-04-13 22:18:00,
2013-04-13 15:25:00,73.0,47.9,29.44,WNW,293,6.0,6.0,41,0.00,,,0.00,Wunderground v.1.15,2013-04-13 22:25:00,
2013-04-13 15:31:00,73.5,46.3,29.44,West,266,5.0,5.0,38,0.00,,,0.00,Wunderground v.1.15,2013-04-13 22:31:00,
2013-04-13 15:37:00,74.2,47.0,29.44,West,271,5.0,11.0,38,0.00,,,0.00,Wunderground v.1.15,2013-04-13 22:37:00,
2013-04-13 15:42:00,73.7,44.3,29.44,West,276,6.0,6.0,35,0.00,,,0.00,Wunderground v.1.15,2013-04-13 22:42:00,
2013-04-13 15:49:00,73.3,46.2,29.44,WNW,282,7.0,11.0,38,0.00,,,0.00,Wunderground v.1.15,2013-04-13 22:49:00,
2013-04-13 15:54:00,72.8,44.3,29.44,WNW,298,8.0,12.0,36,0.00,,,0.00,Wunderground v.1.15,2013-04-13 22:54:00,
2013-04-13 16:01:00,72.7,46.3,29.44,WNW,297,8.0,8.0,39,0.00,,,0.00,Wunderground v.1.15,2013-04-13 23:01:00,
2013-04-13 16:06:00,72.7,44.2,29.44,WNW,293,7.0,11.0,36,0.00,,,0.00,Wunderground v.1.15,2013-04-13 23:06:00,
2013-04-13 16:13:00,72.3,48.5,29.44,WNW,292,8.0,8.0,43,0.00,,,0.00,Wunderground v.1.15,2013-04-13 23:13:00,
2013-04-13 16:19:00,72.5,44.7,29.43,WNW,302,7.0,8.0,37,0.00,,,0.00,Wunderground v.1.15,2013-04-13 23:19:00,
2013-04-13 16:24:00,72.7,45.6,29.44,West,277,7.0,9.0,38,0.00,,,0.00,Wunderground v.1.15,2013-04-13 23:24:00,
2013-04-13 16:31:00,72.5,45.4,29.43,West,268,7.0,7.0,38,0.00,,,0.00,Wunderground v.1.15,2013-04-13 23:31:00,
2013-04-13 16:37:00,72.0,45.0,29.43,West,262,8.0,9.0,38,0.00,,,0.00,Wunderground v.1.15,2013-04-13 23:37:00,
2013-04-13 16:42:00,71.8,44.1,29.43,NW,316,8.0,10.0,37,0.00,,,0.00,Wunderground v.1.15,2013-04-13 23:42:00,
2013-04-13 16:49:00,71.6,44.6,29.44,NW,314,8.0,10.0,38,0.00,,,0.00,Wunderground v.1.15,2013-04-13 23:49:00,
2013-04-13 16:55:00,70.9,44.7,29.44,NW,310,9.0,11.0,39,0.00,,,0.00,Wunderground v.1.15,2013-04-13 23:55:00,
2013-04-13 17:00:00,70.8,43.9,29.44,WSW,252,8.0,12.0,38,0.00,,,0.00,Wunderground v.1.15,2013-04-14 00:00:00,
2013-04-13 17:06:00,70.1,44.0,29.44,WNW,293,8.0,12.0,39,0.00,,,0.00,Wunderground v.1.15,2013-04-14 00:06:00,
2013-04-13 17:13:00,70.1,44.0,29.44,WNW,282,8.0,14.0,39,0.00,,,0.00,Wunderground v.1.15,2013-04-14 00:13:00,
2013-04-13 17:18:00,69.9,43.8,29.44,WSW,239,8.0,14.0,39,0.00,,,0.00,Wunderground v.1.15,2013-04-14 00:18:00,
2013-04-13 17:25:00,70.1,44.6,29.44,WNW,283,7.0,11.0,40,0.00,,,0.00,Wunderground v.1.15,2013-04-14 00:25:00,
2013-04-13 17:30:00,70.1,44.0,29.44,SW,232,6.0,7.0,39,0.00,,,0.00,Wunderground v.1.15,2013-04-14 00:30:00,
2013-04-13 17:36:00,69.8,43.0,29.44,West,276,6.0,9.0,38,0.00,,,0.00,Wunderground v.1.15,2013-04-14 00:36:00,
2013-04-13 17:42:00,69.6,44.2,29.44,WNW,296,6.0,7.0,40,0.00,,,0.00,Wunderground v.1.15,2013-04-14 00:42:00,
2013-04-13 17:49:00,69.3,42.6,29.44,WSW,242,6.0,10.0,38,0.00,,,0.00,Wunderground v.1.15,2013-04-14 00:49:00,
2013-04-13 17:54:00,68.9,42.2,29.44,West,272,7.0,7.0,38,0.00,,,0.00,Wunderground v.1.15,2013-04-14 00:54:00,
2013-04-13 18:01:00,68.6,42.0,29.44,WNW,300,8.0,8.0,38,0.00,,,0.00,Wunderground v.1.15,2013-04-14 01:01:00,
2013-04-13 18:06:00,68.1,41.5,29.44,WNW,292,8.0,8.0,38,0.00,,,0.00,Wunderground v.1.15,2013-04-14 01:06:00,
2013-04-13 18:13:00,67.6,41.7,29.45,WNW,298,8.0,8.0,39,0.00,,,0.00,Wunderground v.1.15,2013-04-14 01:13:00,
2013-04-13 18:18:00,67.3,41.5,29.45,NW,317,7.0,9.0,39,0.00,,,0.00,Wunderground v.1.15,2013-04-14 01:18:00,
2013-04-13 18:24:00,67.1,41.3,29.46,SW,222,6.0,7.0,39,0.00,,,0.00,Wunderground v.1.15,2013-04-14 01:24:00,
2013-04-13 18:30:00,66.9,40.5,29.46,West,274,6.0,9.0,38,0.00,,,0.00,Wunderground v.1.15,2013-04-14 01:30:00,
2013-04-13 18:37:00,66.8,40.4,29.46,West,262,6.0,9.0,38,0.00,,,0.00,Wunderground v.1.15,2013-04-14 01:37:00,
2013-04-13 18:42:00,66.6,41.5,29.46,West,262,5.0,7.0,40,0.00,,,0.00,Wunderground v.1.15,2013-04-14 01:42:00,
2013-04-13 18:49:00,66.4,41.3,29.46,West,263,5.0,8.0,40,0.00,,,0.00,Wunderground v.1.15,2013-04-14 01:49:00,
2013-04-13 18:55:00,66.3,40.6,29.46,WNW,302,4.0,6.0,39,0.00,,,0.00,Wunderground v.1.15,2013-04-14 01:55:00,
2013-04-13 19:00:00,66.0,39.7,29.46,WNW,296,3.0,3.0,38,0.00,,,0.00,Wunderground v.1.15,2013-04-14 02:00:00,
2013-04-13 19:07:00,65.8,40.8,29.46,NW,306,1.0,5.0,40,0.00,,,0.00,Wunderground v.1.15,2013-04-14 02:07:00,
2013-04-13 19:13:00,65.3,40.3,29.46,NW,309,1.0,4.0,40,0.00,,,0.00,Wunderground v.1.15,2013-04-14 02:13:00,
2013-04-13 19:18:00,64.7,39.2,29.46,WSW,241,3.0,9.0,39,0.00,,,0.00,Wunderground v.1.15,2013-04-14 02:18:00,
2013-04-13 19:25:00,64.2,39.4,29.46,West,259,4.0,5.0,40,0.00,,,0.00,Wunderground v.1.15,2013-04-14 02:25:00,
2013-04-13 19:31:00,63.7,39.5,29.46,WNW,288,2.0,2.0,41,0.00,,,0.00,Wunderground v.1.15,2013-04-14 02:31:00,
2013-04-13 19:37:00,63.1,39.6,29.47,West,279,2.0,2.0,42,0.00,,,0.00,Wunderground v.1.15,2013-04-14 02:37:00,
2013-04-13 19:43:00,62.6,39.8,29.47,WNW,287,2.0,2.0,43,0.00,,,0.00,Wunderground v.1.15,2013-04-14 02:43:00,
2013-04-13 19:49:00,62.1,38.7,29.47,West,279,2.0,4.0,42,0.00,,,0.00,Wunderground v.1.15,2013-04-14 02:49:00,
2013-04-13 19:54:00,61.6,39.5,29.47,WNW,298,2.0,6.0,44,0.00,,,0.00,Wunderground v.1.15,2013-04-14 02:54:00,
2013-04-13 20:00:00,61.2,39.1,29.47,West,275,3.0,4.0,44,0.00,,,0.00,Wunderground v.1.15,2013-04-14 03:00:00,
2013-04-13 20:07:00,60.7,38.6,29.47,WNW,294,2.0,4.0,44,0.00,,,0.00,Wunderground v.1.15,2013-04-14 03:07:00,
2013-04-13 20:10:00,57.2,38.2,29.50,West,274,2.0,2.0,49,0.00,,,0.00,Wunderground v.1.15,2013-04-14 03:10:00,
2013-04-13 20:12:00,57.2,38.2,29.50,WNW,284,2.0,3.0,49,0.00,,,0.00,Wunderground v.1.15,2013-04-14 03:12:00,
2013-04-13 20:13:00,60.4,38.9,29.48,WNW,290,1.0,2.0,45,0.00,,,0.00,Wunderground v.1.15,2013-04-14 03:13:00,
2013-04-13 20:14:00,57.0,38.0,29.50,WNW,299,2.0,3.0,49,0.00,,,0.00,Wunderground v.1.15,2013-04-14 03:14:00,
2013-04-13 20:16:00,56.9,37.9,29.50,SW,227,2.0,3.0,49,0.00,,,0.00,Wunderground v.1.15,2013-04-14 03:16:00,
2013-04-13 20:18:00,56.9,38.4,29.50,West,275,1.0,4.0,50,0.00,,,0.00,Wunderground v.1.15,2013-04-14 03:18:00,
2013-04-13 20:19:00,59.9,39.1,29.48,WNW,292,0.0,2.0,46,0.00,,,0.00,Wunderground v.1.15,2013-04-14 03:19:00,
2013-04-13 20:20:00,56.7,38.8,29.50,West,276,1.0,1.0,51,0.00,,,0.00,Wunderground v.1.15,2013-04-14 03:20:00,
2013-04-13 20:22:00,56.5,38.6,29.50,West,276,1.0,1.0,51,0.00,,,0.00,Wunderground v.1.15,2013-04-14 03:22:00,
2013-04-13 20:24:00,56.3,38.4,29.50,West,271,1.0,2.0,51,0.00,,,0.00,Wunderground v.1.15,2013-04-14 03:24:00,
2013-04-13 20:25:00,59.3,39.1,29.49,NNE,27,0.0,0.0,47,0.00,,,0.00,Wunderground v.1.15,2013-04-14 03:25:00,
2013-04-13 20:26:00,56.2,38.3,29.51,West,270,1.0,3.0,51,0.00,,,0.00,Wunderground v.1.15,2013-04-14 03:26:00,
2013-04-13 20:28:00,56.0,38.1,29.51,WSW,257,2.0,3.0,51,0.00,,,0.00,Wunderground v.1.15,2013-04-14 03:28:00,
2013-04-13 20:30:00,58.9,38.1,29.49,WSW,256,1.0,3.0,46,0.00,,,0.00,Wunderground v.1.15,2013-04-14 03:30:00,
2013-04-13 20:32:00,55.9,38.5,29.51,WNW,299,2.0,3.0,52,0.00,,,0.00,Wunderground v.1.15,2013-04-14 03:32:00,
2013-04-13 20:34:00,55.7,37.8,29.51,WNW,298,2.0,3.0,51,0.00,,,0.00,Wunderground v.1.15,2013-04-14 03:34:00,
2013-04-13 20:36:00,55.6,37.7,29.51,West,275,2.0,3.0,51,0.00,,,0.00,Wunderground v.1.15,2013-04-14 03:36:00,
2013-04-13 20:37:00,58.7,38.5,29.49,WNW,300,4.0,5.0,47,0.00,,,0.00,Wunderground v.1.15,2013-04-14 03:37:00,
2013-04-13 20:38:00,55.6,38.2,29.51,WNW,295,2.0,3.0,52,0.00,,,0.00,Wunderground v.1.15,2013-04-14 03:38:00,
2013-04-13 20:40:00,55.4,38.1,29.52,West,279,2.0,3.0,52,0.00,,,0.00,Wunderground v.1.15,2013-04-14 03:40:00,
2013-04-13 20:42:00,55.4,38.1,29.52,WNW,283,2.0,3.0,52,0.00,,,0.00,Wunderground v.1.15,2013-04-14 03:42:00,
2013-04-13 20:43:00,58.3,38.7,29.49,WNW,292,3.0,10.0,48,0.00,,,0.00,Wunderground v.1.15,2013-04-14 03:43:00,
2013-04-13 20:44:00,55.3,38.0,29.52,WNW,284,2.0,3.0,52,0.00,,,0.00,Wunderground v.1.15,2013-04-14 03:44:00,
2013-04-13 20:46:00,55.3,38.0,29.52,WNW,292,2.0,3.0,52,0.00,,,0.00,Wunderground v.1.15,2013-04-14 03:46:00,
2013-04-13 20:48:00,57.8,38.2,29.50,NW,306,4.0,10.0,48,0.00,,,0.00,Wunderground v.1.15,2013-04-14 03:48:00,
2013-04-13 20:50:00,55.0,38.2,29.52,West,269,2.0,4.0,53,0.00,,,0.00,Wunderground v.1.15,2013-04-14 03:50:00,
2013-04-13 20:52:00,55.0,38.2,29.52,WNW,292,2.0,4.0,53,0.00,,,0.00,Wunderground v.1.15,2013-04-14 03:52:00,
2013-04-13 20:54:00,54.8,38.0,29.52,West,270,2.0,4.0,53,0.00,,,0.00,Wunderground v.1.15,2013-04-14 03:54:00,
2013-04-13 20:55:00,57.6,38.0,29.50,NW,316,4.0,4.0,48,0.00,,,0.00,Wunderground v.1.15,2013-04-14 03:55:00,
2013-04-13 20:58:00,54.7,38.4,29.52,WNW,290,3.0,5.0,54,0.00,,,0.00,Wunderground v.1.15,2013-04-14 03:58:00,
2013-04-13 21:00:00,54.5,38.7,29.52,WSW,251,3.0,3.0,55,0.00,,,0.00,Wunderground v.1.15,2013-04-14 04:00:00,
2013-04-13 21:02:00,54.4,38.1,29.52,WSW,252,3.0,3.0,54,0.00,,,0.00,Wunderground v.1.15,2013-04-14 04:02:00,
2013-04-13 21:04:00,54.4,38.6,29.52,NW,309,2.0,3.0,55,0.00,,,0.00,Wunderground v.1.15,2013-04-14 04:04:00,
2013-04-13 21:06:00,54.2,38.4,29.52,West,275,2.0,4.0,55,0.00,,,0.00,Wunderground v.1.15,2013-04-14 04:06:00,
2013-04-13 21:08:00,54.1,38.3,29.52,West,269,2.0,4.0,55,0.00,,,0.00,Wunderground v.1.15,2013-04-14 04:08:00,
2013-04-13 21:10:00,54.1,38.3,29.52,West,280,3.0,4.0,55,0.00,,,0.00,Wunderground v.1.15,2013-04-14 04:10:00,
2013-04-13 21:12:00,53.9,37.6,29.52,WSW,241,3.0,4.0,54,0.00,,,0.00,Wunderground v.1.15,2013-04-14 04:12:00,
2013-04-13 21:14:00,53.9,38.1,29.52,WNW,299,3.0,4.0,55,0.00,,,0.00,Wunderground v.1.15,2013-04-14 04:14:00,
2013-04-13 21:16:00,53.8,38.0,29.52,WSW,242,3.0,4.0,55,0.00,,,0.00,Wunderground v.1.15,2013-04-14 04:16:00,
2013-04-13 21:18:00,53.8,38.0,29.52,West,281,2.0,4.0,55,0.00,,,0.00,Wunderground v.1.15,2013-04-14 04:18:00,
2013-04-13 21:20:00,53.8,38.0,29.52,WNW,282,3.0,3.0,55,0.00,,,0.00,Wunderground v.1.15,2013-04-14 04:20:00,
2013-04-13 21:22:00,53.6,37.8,29.52,WNW,284,2.0,3.0,55,0.00,,,0.00,Wunderground v.1.15,2013-04-14 04:22:00,
2013-04-13 21:24:00,53.6,37.8,29.52,WNW,283,3.0,3.0,55,0.00,,,0.00,Wunderground v.1.15,2013-04-14 04:24:00,
2013-04-13 21:26:00,53.5,37.7,29.52,WNW,292,3.0,3.0,55,0.00,,,0.00,Wunderground v.1.15,2013-04-14 04:26:00,
2013-04-13 21:28:00,53.5,38.2,29.52,WNW,284,3.0,3.0,56,0.00,,,0.00,Wunderground v.1.15,2013-04-14 04:28:00,
2013-04-13 21:30:00,53.3,38.4,29.52,WNW,284,3.0,3.0,57,0.00,,,0.00,Wunderground v.1.15,2013-04-14 04:30:00,
2013-04-13 21:32:00,53.3,38.0,29.52,West,259,3.0,3.0,56,0.00,,,0.00,Wunderground v.1.15,2013-04-14 04:32:00,
2013-04-13 21:34:00,53.2,37.9,29.53,WNW,287,3.0,3.0,56,0.00,,,0.00,Wunderground v.1.15,2013-04-14 04:34:00,
2013-04-13 21:36:00,53.1,38.3,29.52,SW,236,2.0,3.0,57,0.00,,,0.00,Wunderground v.1.15,2013-04-14 04:36:00,
2013-04-13 21:38:00,53.1,37.8,29.52,West,280,2.0,3.0,56,0.00,,,0.00,Wunderground v.1.15,2013-04-14 04:38:00,
2013-04-13 21:40:00,53.1,37.8,29.52,WSW,258,3.0,3.0,56,0.00,,,0.00,Wunderground v.1.15,2013-04-14 04:40:00,
2013-04-13 21:42:00,52.9,38.1,29.52,WNW,284,3.0,3.0,57,0.00,,,0.00,Wunderground v.1.15,2013-04-14 04:42:00,
2013-04-13 21:44:00,52.9,38.1,29.53,WNW,287,2.0,6.0,57,0.00,,,0.00,Wunderground v.1.15,2013-04-14 04:44:00,
2013-04-13 21:46:00,52.8,38.0,29.53,WNW,283,3.0,6.0,57,0.00,,,0.00,Wunderground v.1.15,2013-04-14 04:46:00,
2013-04-13 21:48:00,52.8,38.0,29.53,West,260,3.0,6.0,57,0.00,,,0.00,Wunderground v.1.15,2013-04-14 04:48:00,
2013-04-13 21:50:00,52.6,38.7,29.53,West,271,2.0,2.0,59,0.00,,,0.00,Wunderground v.1.15,2013-04-14 04:50:00,
2013-04-13 21:52:00,52.5,38.1,29.53,WNW,294,2.0,3.0,58,0.00,,,0.00,Wunderground v.1.15,2013-04-14 04:52:00,
2013-04-13 21:54:00,52.5,38.1,29.53,WNW,283,2.0,3.0,58,0.00,,,0.00,Wunderground v.1.15,2013-04-14 04:54:00,
2013-04-13 21:56:00,52.3,38.0,29.53,WNW,302,2.0,3.0,58,0.00,,,0.00,Wunderground v.1.15,2013-04-14 04:56:00,
2013-04-13 21:58:00,52.3,39.7,29.53,WNW,302,3.0,3.0,62,0.00,,,0.00,Wunderground v.1.15,2013-04-14 04:58:00,
2013-04-13 22:00:00,52.3,38.0,29.54,NW,311,3.0,4.0,58,0.00,,,0.00,Wunderground v.1.15,2013-04-14 05:00:00,
2013-04-13 22:02:00,52.2,37.9,29.53,WSW,254,4.0,4.0,58,0.00,,,0.00,Wunderground v.1.15,2013-04-14 05:02:00,
2013-04-13 22:04:00,52.2,37.9,29.53,West,278,4.0,4.0,58,0.00,,,0.00,Wunderground v.1.15,2013-04-14 05:04:00,
2013-04-13 22:08:00,52.2,37.9,29.54,WNW,282,3.0,4.0,58,0.00,,,0.00,Wunderground v.1.15,2013-04-14 05:08:00,
2013-04-13 22:12:00,52.0,38.1,29.54,NW,307,3.0,3.0,59,0.00,,,0.00,Wunderground v.1.15,2013-04-14 05:12:00,
2013-04-13 22:14:00,51.9,38.4,29.54,West,280,2.0,3.0,60,0.00,,,0.00,Wunderground v.1.15,2013-04-14 05:14:00,
2013-04-13 22:16:00,51.7,38.3,29.53,NW,313,2.0,3.0,60,0.00,,,0.00,Wunderground v.1.15,2013-04-14 05:16:00,
2013-04-13 22:18:00,51.6,38.2,29.53,WSW,248,2.0,3.0,60,0.00,,,0.00,Wunderground v.1.15,2013-04-14 05:18:00,
2013-04-13 22:20:00,51.6,38.2,29.53,WNW,294,2.0,2.0,60,0.00,,,0.00,Wunderground v.1.15,2013-04-14 05:20:00,
2013-04-13 22:22:00,51.6,38.2,29.54,WNW,302,2.0,5.0,60,0.00,,,0.00,Wunderground v.1.15,2013-04-14 05:22:00,
2013-04-13 22:24:00,51.4,37.5,29.54,WNW,286,2.0,5.0,59,0.00,,,0.00,Wunderground v.1.15,2013-04-14 05:24:00,
2013-04-13 22:26:00,51.4,38.0,29.54,SW,227,2.0,5.0,60,0.00,,,0.00,Wunderground v.1.15,2013-04-14 05:26:00,
2013-04-13 22:28:00,51.4,38.0,29.53,WSW,250,2.0,5.0,60,0.00,,,0.00,Wunderground v.1.15,2013-04-14 05:28:00,
2013-04-13 22:30:00,51.4,38.0,29.53,SW,227,2.0,2.0,60,0.00,,,0.00,Wunderground v.1.15,2013-04-14 05:30:00,
2013-04-13 22:32:00,51.3,38.3,29.53,WSW,243,2.0,2.0,61,0.00,,,0.00,Wunderground v.1.15,2013-04-14 05:32:00,
2013-04-13 22:34:00,51.3,38.3,29.53,WSW,243,1.0,2.0,61,0.00,,,0.00,Wunderground v.1.15,2013-04-14 05:34:00,
2013-04-13 22:36:00,51.1,38.1,29.53,WNW,285,1.0,2.0,61,0.00,,,0.00,Wunderground v.1.15,2013-04-14 05:36:00,
2013-04-13 22:38:00,51.0,37.6,29.54,WNW,299,1.0,3.0,60,0.00,,,0.00,Wunderground v.1.15,2013-04-14 05:38:00,
2013-04-13 22:40:00,51.0,37.6,29.54,WSW,254,1.0,1.0,60,0.00,,,0.00,Wunderground v.1.15,2013-04-14 05:40:00,
2013-04-13 22:42:00,51.0,38.0,29.54,WSW,254,1.0,1.0,61,0.00,,,0.00,Wunderground v.1.15,2013-04-14 05:42:00,
2013-04-13 22:44:00,51.0,38.0,29.54,WSW,254,1.0,1.0,61,0.00,,,0.00,Wunderground v.1.15,2013-04-14 05:44:00,
2013-04-13 22:46:00,50.8,37.8,29.54,WNW,282,1.0,2.0,61,0.00,,,0.00,Wunderground v.1.15,2013-04-14 05:46:00,
2013-04-13 22:48:00,50.8,37.8,29.54,West,275,1.0,2.0,61,0.00,,,0.00,Wunderground v.1.15,2013-04-14 05:48:00,
2013-04-13 22:52:00,50.7,37.7,29.54,WNW,303,1.0,2.0,61,0.00,,,0.00,Wunderground v.1.15,2013-04-14 05:52:00,
2013-04-13 22:56:00,50.5,37.5,29.54,West,276,2.0,2.0,61,0.00,,,0.00,Wunderground v.1.15,2013-04-14 05:56:00,
2013-04-13 22:58:00,50.5,37.5,29.54,NW,307,2.0,3.0,61,0.00,,,0.00,Wunderground v.1.15,2013-04-14 05:58:00,
2013-04-13 23:02:00,50.5,37.5,29.54,West,263,3.0,3.0,61,0.00,,,0.00,Wunderground v.1.15,2013-04-14 06:02:00,
2013-04-13 23:04:00,50.4,37.9,29.54,WNW,289,3.0,3.0,62,0.00,,,0.00,Wunderground v.1.15,2013-04-14 06:04:00,
2013-04-13 23:06:00,50.4,37.9,29.54,West,281,3.0,4.0,62,0.00,,,0.00,Wunderground v.1.15,2013-04-14 06:06:00,
2013-04-13 23:18:00,50.1,37.6,29.54,WNW,297,3.0,5.0,62,0.00,,,0.00,Wunderground v.1.15,2013-04-14 06:18:00,
2013-04-13 23:41:00,50.7,38.1,29.54,West,275,1.0,1.0,62,0.00,,,0.00,Wunderground v.1.15,2013-04-14 06:41:00,
2013-04-13 23:50:00,50.5,37.5,29.54,WNW,300,3.0,3.0,61,0.00,,,0.00,Wunderground v.1.15,2013-04-14 06:50:00,
2013-04-13 23:58:00,50.4,37.9,29.54,West,265,3.0,4.0,62,0.00,,,0.00,Wunderground v.1.15,2013-04-14 06:58:00,